User: anonymous   Login
Location: Dötzum
(52.0808°N, 9.8063°E)
Time: 09:06:38
(UTC+00:00)
Language:

GP-B - Orbit

View from above orbital plane
View from above orbital plane
View from above satellite
View from above satellite

Ground track
Ground track

The orbit data is extracted from the following two-line orbital elements,

1 28230U 04014A   22230.31307747  .00000451  00000-0  58796-4 0  9994
2 28230  89.8112  80.2360 0001942  91.3700 268.7745 14.79103441445298
Epoch (UTC): 18 August 2022 07:30:49
Eccentricity: 0.0001942
inclination: 89.8112°
perigee height: 631 km
apogee height: 633 km
right ascension of ascending node: 80.2360°
argument of perigee: 91.3700°
revolutions per day: 14.79103441
mean anomaly at epoch: 268.7745°
orbit number at epoch: 44529

The dashed part of the orbit path shows where the satellite is in the earth's shadow,  

DLR